#timestamp,LO_Frequency,Hit,StdDev 
1562122815.5,286047004.3,N
1562122835.4,286046999.7,N
1562122855.2,286046998.7,N
1562122875.0,286046998.9,N
1562122875.9,286046998.9,N
1562122895.8,286046997.3,N
1562122915.6,286046997.1,N
1562122935.5,286047001.2,N
1562122955.3,286047000.6,N
1562122975.1,286046995.7,N
1562122995.9,286046992.1,N
1562123015.7,286046987.1,Y
1562123035.5,286046984.3,P
1562123055.4,286046984.2,N
1562123075.2,286046982.9,N
1562123095.1,286046976.1,Y
1562123096.0,286046976.1,P
1562123115.8,286046989.7,N
1562123135.6,286046990.4,N
1562123155.5,286046993.9,N
1562123175.3,286046997.4,N
1562123195.2,286046996.8,N
1562123215.9,286046997.7,N
1562123235.7,286046997.9,N
1562123255.6,286046994.9,N
1562123275.4,286046996.8,N
1562123295.2,286046998.7,N
1562123315.1,286047002.6,N
1562123316.0,286047002.6,N
1562123335.8,286047003.2,N
1562123355.7,286047007.4,N
1562123375.5,286047007.1,N
1562123395.3,286047006.9,N
1562123415.2,286046999.8,N
1562123435.9,286047001.5,N
1562123455.7,286047004.2,N
1562123475.6,286046999.5,N
1562123495.4,286047002.5,N
1562123515.3,286047006.8,N
1562123535.1,286047006.2,N
1562123536.0,286047006.2,N
1562123555.8,286047006.0,N
1562123575.7,286047002.7,N
1562123595.5,286047001.0,N
1562123615.3,286047004.4,N
1562123635.2,286046998.1,N
1562123655.0,286046997.1,N
1562123655.9,286046997.1,N
1562123675.8,286046998.8,N
1562123695.6,286046996.7,N
1562123715.4,286046995.0,N
1562123735.3,286046996.5,N
1562123755.1,286046998.8,N
1562123775.8,286046999.3,N
1562123795.7,286046999.1,N
1562123815.5,286047000.9,N
1562123835.4,286047004.2,N
1562123855.2,286047006.0,N
1562123875.0,286047005.6,N
1562123875.9,286047005.6,N
1562123895.8,286047005.6,N
1562123915.6,286047001.6,N
1562123935.4,286047001.5,N
1562123955.3,286047003.1,N
1562123975.1,286047005.9,N
1562123995.9,286047010.4,N
1562124015.7,286047012.3,Y
1562124035.5,286047009.3,P
1562124055.4,286047013.4,P
1562124075.2,286047016.5,P
1562124095.1,286047020.6,Y
1562124096.0,286047020.6,P
1562124115.8,286047013.8,N
1562124135.6,286047013.2,P
1562124155.5,286047013.5,Y
1562124175.3,286046996.7,P
1562124195.1,286047003.4,N
1562124215.9,286047003.5,N
1562124235.7,286047002.6,N
1562124255.6,286046999.1,N
1562124275.4,286046995.9,N
1562124295.2,286046989.1,N
1562124315.1,286046989.2,N
1562124316.0,286046989.2,N
1562124335.8,286046991.6,N
1562124355.3,286046992.9,N
1562124375.2,286046995.6,N
1562124395.0,286046994.9,N
1562124395.9,286046994.9,N
1562124415.8,286046996.5,N
1562124435.6,286046996.7,N
1562124455.4,286047001.7,N
1562124475.3,286047001.7,N
1562124495.1,286047007.0,N
1562124515.8,286047008.2,N
1562124535.7,286047012.1,N
1562124555.5,286047016.2,N
1562124575.4,286047021.9,N
1562124595.2,286047022.7,N
1562124615.0,286047022.8,N
1562124615.9,286047022.8,N
1562124635.8,286047021.1,N
1562124655.6,286047025.5,N
1562124675.4,286047026.3,N
1562124695.3,286047028.6,N
1562124715.1,286047030.4,N
1562124735.9,286047030.7,N
1562124755.7,286047030.7,N
1562124775.5,286047034.4,N
1562124795.4,286047031.1,N
1562124815.2,286047027.6,N
1562124835.1,286047028.3,N
1562124836.0,286047028.3,N
1562124855.8,286047027.6,N
1562124875.6,286047029.5,N
1562124895.5,286047031.8,N
1562124915.3,286047032.1,N
1562124935.2,286047033.4,N
1562124955.9,286047037.7,Y
1562124975.7,286047016.3,P
1562124995.2,286047016.7,P
1562125015.0,286047015.7,P
1562125015.9,286047015.7,Y
1562125035.8,286046999.7,P
1562125055.6,286047002.2,N
1562125075.4,286047000.4,N
1562125095.3,286046996.9,N
1562125115.1,286047001.1,N
1562125135.8,286046997.3,N
1562125155.7,286046996.1,N
1562125175.5,286046997.4,N
1562125195.4,286046996.8,N
1562125215.2,286046997.1,N
1562125235.0,286046997.7,N
1562125235.9,286046997.7,N
1562125255.8,286046997.8,N
1562125275.6,286046994.7,N
1562125295.4,286046994.6,N
1562125315.3,286046995.8,N
1562125335.1,286046993.5,N
1562125355.9,286046995.9,N
1562125375.7,286046994.6,N
1562125395.5,286046991.7,N
1562125415.4,286046994.4,N
1562125435.2,286046993.4,N
1562125455.0,286046993.6,N
1562125455.9,286046993.6,N
1562125475.8,286046992.9,N
1562125495.6,286046990.7,N
1562125515.5,286046991.0,N
1562125535.3,286046992.7,N
1562125555.1,286046994.5,N
1562125575.9,286046997.9,N
1562125595.7,286046998.3,N
1562125615.5,286047001.3,N
1562125635.4,286047006.4,N
1562125655.2,286047006.5,N
1562125675.1,286047010.6,N
1562125676.0,286047010.6,N
1562125695.8,286047010.0,N
1562125715.6,286047008.3,N
1562125735.5,286047005.0,N
1562125755.3,286047003.0,N
1562125775.2,286047004.0,N
1562125795.9,286047004.0,N
1562125815.7,286047001.5,N
1562125835.6,286047003.9,N
1562125855.4,286047001.5,N
1562125875.2,286047000.2,N
1562125895.1,286047004.1,N
1562125896.0,286047004.1,N
1562125915.8,286047005.7,N
1562125935.7,286047003.2,N
1562125955.5,286047005.2,N
1562125975.3,286047012.0,N
1562125995.2,286047011.1,N
1562126015.0,286047014.6,N
1562126015.9,286047014.6,N
1562126035.7,286047018.4,N
1562126055.6,286047020.8,Y
1562126075.4,286047018.2,P
1562126125.3,286047022.0,E
1562126135.2,286047013.0,N
1562126155.1,286047005.4,P
1562126156.0,286047005.4,N
1562126175.8,286047009.3,N
1562126195.6,286047009.5,N
1562126215.5,286047011.3,Y
1562126235.3,286047007.7,P
1562126255.1,286047010.7,P
1562126275.9,286047008.6,P
1562126295.7,286047010.8,Y
1562126315.6,286047002.3,P
1562126335.4,286047001.3,N
1562126355.2,286047002.9,N
1562126375.1,286047008.3,N
1562126376.0,286047008.3,N
1562126395.8,286047015.8,Y
